| time (UTC) | temp F | wind direction | speed MPH | gust MPH | rain 1hr in | rain 24hr in | rain mn in | humidity % | barometer mb |
| 20260508231521 | 57 | 315 | 5.0 | 9.0 | 0.00 | 0.00 | 0.00 | 43 | |
| 20260508231025 | 57 | 315 | 5.0 | 10.0 | 0.00 | 0.00 | 0.00 | 42 | |
| 20260508230521 | 57 | 315 | 6.0 | 10.0 | 0.00 | 0.00 | 0.00 | 42 | |
| 20260508230021 | 57 | 315 | 8.0 | 11.0 | 0.00 | 0.00 | 0.00 | 42 | |
| 20260508225522 | 57 | 315 | 9.0 | 14.0 | 0.00 | 0.00 | 0.00 | 44 | |
| 20260508225022 | 58 | 338 | 8.0 | 13.0 | 0.00 | 0.00 | 0.00 | 42 | |
| 20260508224022 | 58 | 338 | 10.0 | 15.0 | 0.00 | 0.00 | 0.00 | 41 | |
| 20260508223527 | 58 | 315 | 8.0 | 12.0 | 0.00 | 0.00 | 0.00 | 39 | |
| 20260508223021 | 58 | 315 | 9.0 | 13.0 | 0.00 | 0.00 | 0.00 | 37 | |
| 20260508222522 | 58 | 315 | 7.0 | 11.0 | 0.00 | 0.00 | 0.00 | 39 | |
| 20260508222022 | 59 | 315 | 7.0 | 13.0 | 0.00 | 0.00 | 0.00 | 39 | |
| 20260508221521 | 59 | 315 | 8.0 | 13.0 | 0.00 | 0.00 | 0.00 | 36 | |
| 20260508221023 | 59 | 315 | 10.0 | 15.0 | 0.00 | 0.00 | 0.00 | 36 | |
| 20260508220532 | 59 | 315 | 9.0 | 15.0 | 0.00 | 0.00 | 0.00 | 38 | |
| 20260508220024 | 59 | 315 | 8.0 | 11.0 | 0.00 | 0.00 | 0.00 | 38 | |
| 20260508215521 | 59 | 315 | 7.0 | 11.0 | 0.00 | 0.00 | 0.00 | 39 | |
| 20260508215102 | 59 | 315 | 7.0 | 10.0 | 0.00 | 0.00 | 0.00 | 37 | |
| 20260508214522 | 59 | 315 | 10.0 | 15.0 | 0.00 | 0.00 | 0.00 | 38 | |
| 20260508214022 | 59 | 338 | 12.0 | 16.0 | 0.00 | 0.00 | 0.00 | 38 | |
| 20260508213521 | 59 | 338 | 11.0 | 16.0 | 0.00 | 0.00 | 0.00 | 40 | |
| 20260508213021 | 59 | 315 | 12.0 | 16.0 | 0.00 | 0.00 | 0.00 | 39 | |
| 20260508212521 | 60 | 315 | 12.0 | 17.0 | 0.00 | 0.00 | 0.00 | 36 | |
| 20260508212023 | 60 | 315 | 14.0 | 21.0 | 0.00 | 0.00 | 0.00 | 37 | |
| 20260508211521 | 59 | 315 | 11.0 | 17.0 | 0.00 | 0.00 | 0.00 | 37 | |
| 20260508210521 | 59 | 315 | 11.0 | 17.0 | 0.00 | 0.00 | 0.00 | 36 | |
| 20260508210021 | 60 | 315 | 12.0 | 21.0 | 0.00 | 0.00 | 0.00 | 34 | |
| 20260508205543 | 61 | 315 | 10.0 | 15.0 | 0.00 | 0.00 | 0.00 | 34 | |
| 20260508205022 | 61 | 293 | 11.0 | 18.0 | 0.00 | 0.00 | 0.00 | 33 | |
| 20260508204521 | 61 | 293 | 14.0 | 21.0 | 0.00 | 0.00 | 0.00 | 32 | |
| 20260508203521 | 61 | 293 | 11.0 | 18.0 | 0.00 | 0.00 | 0.00 | 34 | |
| 20260508203021 | 61 | 293 | 12.0 | 19.0 | 0.00 | 0.00 | 0.00 | 33 | |
| 20260508202521 | 60 | 293 | 9.0 | 16.0 | 0.00 | 0.00 | 0.00 | 36 | |
| 20260508202053 | 60 | 270 | 12.0 | 22.0 | 0.00 | 0.00 | 0.00 | 36 | |
| 20260508201521 | 61 | 315 | 14.0 | 22.0 | 0.00 | 0.00 | 0.00 | 35 | |
| 20260508201024 | 61 | 315 | 12.0 | 21.0 | 0.00 | 0.00 | 0.00 | 38 | |
| 20260508200531 | 60 | 270 | 14.0 | 22.0 | 0.00 | 0.00 | 0.00 | 35 | |
| 20260508200024 | 60 | 293 | 14.0 | 23.0 | 0.00 | 0.00 | 0.00 | 35 | |
| 20260508195522 | 60 | 293 | 14.0 | 22.0 | 0.00 | 0.00 | 0.00 | 34 | |
| 20260508195021 | 60 | 293 | 13.0 | 20.0 | 0.00 | 0.00 | 0.00 | 38 | |
| 20260508194603 | 60 | 293 | 12.0 | 19.0 | 0.00 | 0.00 | 0.00 | 36 | |
| 20260508194021 | 60 | 293 | 15.0 | 24.0 | 0.00 | 0.00 | 0.00 | 34 | |
| 20260508192021 | 60 | 270 | 13.0 | 24.0 | 0.00 | 0.00 | 0.00 | 38 | |
| 20260508191542 | 61 | 270 | 15.0 | 27.0 | 0.00 | 0.00 | 0.00 | 36 | |
| 20260508191022 | 61 | 270 | 14.0 | 21.0 | 0.00 | 0.00 | 0.00 | 35 | |
| 20260508185041 | 59 | 293 | 15.0 | 26.0 | 0.00 | 0.00 | 0.00 | 38 | |
| 20260508184525 | 60 | 293 | 15.0 | 28.0 | 0.00 | 0.00 | 0.00 | 38 | |
| 20260508182521 | 59 | 293 | 14.0 | 21.0 | 0.00 | 0.00 | 0.00 | 39 | |
| 20260508182021 | 57 | 293 | 10.0 | 20.0 | 0.00 | 0.00 | 0.00 | 44 | |
| 20260508181521 | 55 | 248 | 6.0 | 12.0 | 0.00 | 0.00 | 0.00 | 59 | |
| 20260508181021 | 55 | 225 | 5.0 | 13.0 | 0.00 | 0.00 | 0.00 | 60 | |
| 20260508180550 | 55 | 248 | 7.0 | 13.0 | 0.00 | 0.00 | 0.00 | 59 | |
| 20260508180031 | 55 | 225 | 9.0 | 13.0 | 0.00 | 0.00 | 0.00 | 66 | |
| 20260508175541 | 55 | 248 | 5.0 | 10.0 | 0.00 | 0.00 | 0.00 | 67 | |
| 20260508175021 | 55 | 270 | 5.0 | 9.0 | 0.00 | 0.00 | 0.00 | 66 | |
| 20260508174520 | 54 | 225 | 5.0 | 11.0 | 0.00 | 0.00 | 0.00 | 69 | |
| 20260508174025 | 54 | 203 | 8.0 | 14.0 | 0.00 | 0.00 | 0.00 | 65 | |
| 20260508173522 | 55 | 248 | 6.0 | 12.0 | 0.00 | 0.00 | 0.00 | 64 | |
| 20260508173021 | 55 | 203 | 7.0 | 12.0 | 0.00 | 0.00 | 0.00 | 60 | |
| 20260508171021 | 54 | 203 | 10.0 | 14.0 | 0.00 | 0.00 | 0.00 | 64 | |
| 20260508170542 | 54 | 225 | 8.0 | 12.0 | 0.00 | 0.00 | 0.00 | 64 | |
| 20260508170129 | 54 | 203 | 9.0 | 14.0 | 0.00 | 0.00 | 0.00 | 61 | |
| 20260508165543 | 55 | 203 | 6.0 | 10.0 | 0.00 | 0.00 | 0.00 | 58 | |
| 20260508165024 | 55 | 270 | 7.0 | 13.0 | 0.00 | 0.00 | 0.00 | 56 | |
| 20260508164521 | 55 | 225 | 6.0 | 17.0 | 0.00 | 0.00 | 0.00 | 55 | |
| 20260508164021 | 54 | 270 | 6.0 | 19.0 | 0.00 | 0.00 | 0.00 | 49 | |
| 20260508163521 | 54 | 203 | 8.0 | 14.0 | 0.00 | 0.00 | 0.00 | 62 | |
| 20260508163020 | 55 | 203 | 9.0 | 14.0 | 0.00 | 0.00 | 0.00 | 61 | |
| 20260508162520 | 54 | 203 | 11.0 | 15.0 | 0.00 | 0.00 | 0.00 | 55 | |
| 20260508162021 | 54 | 180 | 8.0 | 12.0 | 0.00 | 0.00 | 0.00 | 63 | |
| 20260508161520 | 54 | 158 | 5.0 | 9.0 | 0.00 | 0.00 | 0.00 | 62 | |
| 20260508161020 | 54 | 180 | 4.0 | 8.0 | 0.00 | 0.00 | 0.00 | 59 | |
| 20260508160608 | 54 | 180 | 8.0 | 11.0 | 0.00 | 0.00 | 0.00 | 54 | |
| 20260508160049 | 54 | 180 | 6.0 | 9.0 | 0.00 | 0.00 | 0.00 | 57 | |
| 20260508155521 | 54 | 180 | 8.0 | 11.0 | 0.00 | 0.00 | 0.00 | 55 | |
| 20260508155023 | 54 | 180 | 7.0 | 11.0 | 0.00 | 0.00 | 0.00 | 50 | |
| 20260508154521 | 55 | 158 | 6.0 | 11.0 | 0.00 | 0.00 | 0.00 | 55 | |
| 20260508154021 | 55 | 113 | 5.0 | 9.0 | 0.00 | 0.00 | 0.00 | 49 | |
| 20260508153520 | 54 | 338 | 3.0 | 7.0 | 0.00 | 0.00 | 0.00 | 49 | |
| 20260508153021 | 54 | 158 | 5.0 | 10.0 | 0.00 | 0.00 | 0.00 | 49 | |
| 20260508152521 | 54 | 180 | 5.0 | 8.0 | 0.00 | 0.00 | 0.00 | 49 | |
| 20260508152021 | 54 | 158 | 5.0 | 10.0 | 0.00 | 0.00 | 0.00 | 54 | |
| 20260508151520 | 54 | 113 | 3.0 | 5.0 | 0.00 | 0.00 | 0.00 | 60 | |
| 20260508151022 | 54 | 90 | 5.0 | 9.0 | 0.00 | 0.00 | 0.00 | 53 | |
| 20260508150541 | 54 | 68 | 7.0 | 10.0 | 0.00 | 0.00 | 0.00 | 57 | |
| 20260508150042 | 54 | 68 | 6.0 | 9.0 | 0.00 | 0.00 | 0.00 | 57 | |
| 20260508144541 | 55 | 113 | 5.0 | 8.0 | 0.00 | 0.00 | 0.00 | 59 | |
| 20260508144041 | 56 | 113 | 6.0 | 8.0 | 0.00 | 0.00 | 0.00 | 61 | |
| 20260508143520 | 56 | 113 | 5.0 | 8.0 | 0.00 | 0.00 | 0.00 | 55 | |
| 20260508143021 | 57 | 90 | 6.0 | 10.0 | 0.00 | 0.00 | 0.00 | 50 | |
| 20260508142544 | 59 | 293 | 3.0 | 10.0 | 0.00 | 0.00 | 0.00 | 41 | |
| 20260508142020 | 59 | 315 | 3.0 | 7.0 | 0.00 | 0.00 | 0.00 | 43 | |
| 20260508141521 | 59 | 270 | 5.0 | 12.0 | 0.00 | 0.00 | 0.00 | 45 | |
| 20260508141020 | 59 | 270 | 6.0 | 14.0 | 0.00 | 0.00 | 0.00 | 39 | |
| 20260508140543 | 59 | 293 | 8.0 | 13.0 | 0.00 | 0.00 | 0.00 | 39 | |
| 20260508140058 | 59 | 315 | 5.0 | 10.0 | 0.00 | 0.00 | 0.00 | 41 | |
| 20260508135543 | 58 | 293 | 8.0 | 13.0 | 0.00 | 0.00 | 0.00 | 40 | |
| 20260508135020 | 58 | 293 | 8.0 | 13.0 | 0.00 | 0.00 | 0.00 | 40 | |
| 20260508134521 | 58 | 315 | 6.0 | 12.0 | 0.00 | 0.00 | 0.00 | 43 | |
| 20260508134022 | 58 | 338 | 6.0 | 12.0 | 0.00 | 0.00 | 0.00 | 46 | |
| 20260508133526 | 58 | 315 | 8.0 | 12.0 | 0.00 | 0.00 | 0.00 | 43 | |
| 20260508133022 | 57 | 338 | 9.0 | 12.0 | 0.00 | 0.00 | 0.00 | 47 | |
| 20260508132522 | 57 | 315 | 6.0 | 11.0 | 0.00 | 0.00 | 0.00 | 43 | |
| 20260508132022 | 57 | 315 | 7.0 | 11.0 | 0.00 | 0.00 | 0.00 | 46 | |
| 20260508131522 | 56 | 293 | 6.0 | 10.0 | 0.00 | 0.00 | 0.00 | 45 | |
| 20260508131022 | 56 | 293 | 6.0 | 9.0 | 0.00 | 0.00 | 0.00 | 48 | |
| 20260508130523 | 55 | 315 | 6.0 | 13.0 | 0.00 | 0.00 | 0.00 | 49 | |
| 20260508130022 | 54 | 315 | 5.0 | 11.0 | 0.00 | 0.00 | 0.00 | 47 | |
| 20260508125522 | 54 | 338 | 6.0 | 11.0 | 0.00 | 0.00 | 0.00 | 49 | |
| 20260508125124 | 54 | 315 | 6.0 | 10.0 | 0.00 | 0.00 | 0.00 | 49 | |
| 20260508124521 | 54 | 315 | 7.0 | 12.0 | 0.00 | 0.00 | 0.00 | 51 | |
| 20260508124044 | 53 | 293 | 6.0 | 12.0 | 0.00 | 0.00 | 0.00 | 48 | |
| 20260508123522 | 53 | 293 | 8.0 | 13.0 | 0.00 | 0.00 | 0.00 | 48 | |
| 20260508123022 | 53 | 293 | 9.0 | 13.0 | 0.00 | 0.00 | 0.00 | 48 | |
| 20260508122605 | 53 | 293 | 9.0 | 13.0 | 0.00 | 0.00 | 0.00 | 48 | |
| 20260508122022 | 53 | 293 | 10.0 | 15.0 | 0.00 | 0.00 | 0.00 | 48 | |
| 20260508121522 | 53 | 315 | 8.0 | 14.0 | 0.00 | 0.00 | 0.00 | 48 | |
| 20260508121022 | 53 | 293 | 8.0 | 12.0 | 0.00 | 0.00 | 0.00 | 48 | |
| 20260508120528 | 53 | 293 | 9.0 | 15.0 | 0.00 | 0.00 | 0.00 | 48 | |
| 20260508120024 | 52 | 293 | 10.0 | 16.0 | 0.00 | 0.00 | 0.00 | 47 | |
| 20260508115542 | 52 | 293 | 9.0 | 15.0 | 0.00 | 0.00 | 0.00 | 48 | |
| 20260508115023 | 52 | 293 | 9.0 | 14.0 | 0.00 | 0.00 | 0.00 | 49 | |
| 20260508114542 | 52 | 293 | 8.0 | 13.0 | 0.00 | 0.00 | 0.00 | 50 | |
| 20260508113522 | 51 | 293 | 9.0 | 15.0 | 0.00 | 0.00 | 0.00 | 52 | |
| 20260508113044 | 51 | 293 | 9.0 | 13.0 | 0.00 | 0.00 | 0.00 | 52 | |
| 20260508112521 | 50 | 293 | 10.0 | 14.0 | 0.00 | 0.00 | 0.00 | 52 | |
| 20260508112042 | 50 | 293 | 9.0 | 15.0 | 0.00 | 0.00 | 0.00 | 54 | |
| 20260508111522 | 50 | 293 | 10.0 | 13.0 | 0.00 | 0.00 | 0.00 | 53 | |
| 20260508111022 | 49 | 293 | 11.0 | 17.0 | 0.00 | 0.00 | 0.00 | 54 | |
| 20260508110521 | 49 | 293 | 11.0 | 16.0 | 0.00 | 0.00 | 0.00 | 56 | |
| 20260508110021 | 48 | 293 | 10.0 | 14.0 | 0.00 | 0.00 | 0.00 | 56 | |
| 20260508105521 | 48 | 293 | 8.0 | 13.0 | 0.00 | 0.00 | 0.00 | 56 | |
| 20260508105025 | 48 | 315 | 7.0 | 12.0 | 0.00 | 0.00 | 0.00 | 56 | |
| 20260508104522 | 49 | 315 | 8.0 | 12.0 | 0.00 | 0.00 | 0.00 | 57 | |
| 20260508104042 | 49 | 315 | 7.0 | 12.0 | 0.00 | 0.00 | 0.00 | 56 | |
| 20260508103530 | 49 | 315 | 8.0 | 13.0 | 0.00 | 0.00 | 0.00 | 56 | |
| 20260508103022 | 49 | 315 | 7.0 | 12.0 | 0.00 | 0.00 | 0.00 | 57 | |
| 20260508102525 | 48 | 315 | 8.0 | 13.0 | 0.00 | 0.00 | 0.00 | 57 | |
| 20260508102022 | 48 | 293 | 8.0 | 14.0 | 0.00 | 0.00 | 0.00 | 57 | |
| 20260508101522 | 47 | 293 | 10.0 | 14.0 | 0.00 | 0.00 | 0.00 | 58 | |
| 20260508101021 | 47 | 293 | 10.0 | 14.0 | 0.00 | 0.00 | 0.00 | 58 | |
| 20260508100620 | 47 | 293 | 11.0 | 14.0 | 0.00 | 0.00 | 0.00 | 58 | |
| 20260508100024 | 47 | 293 | 11.0 | 15.0 | 0.00 | 0.00 | 0.00 | 58 | |
| 20260508095521 | 47 | 293 | 11.0 | 15.0 | 0.00 | 0.00 | 0.00 | 59 | |
| 20260508095025 | 47 | 293 | 11.0 | 14.0 | 0.00 | 0.00 | 0.00 | 59 | |
| 20260508094522 | 47 | 293 | 11.0 | 15.0 | 0.00 | 0.00 | 0.00 | 59 | |
| 20260508094022 | 47 | 293 | 11.0 | 16.0 | 0.00 | 0.00 | 0.00 | 59 | |
| 20260508093522 | 0 | 293 | 12.0 | 16.0 | 0.00 | 0.00 | 0.00 | ||
| 20260508093021 | 0 | 293 | 10.0 | 14.0 | 0.00 | 0.00 | 0.00 | ||
| 20260508092604 | 0 | 293 | 10.0 | 14.0 | 0.00 | 0.00 | 0.00 | ||
| 20260508092025 | 0 | 293 | 11.0 | 15.0 | 0.00 | 0.00 | 0.00 | ||
| 20260508091521 | 0 | 293 | 11.0 | 15.0 | 0.00 | 0.00 | 0.00 | ||
| 20260508091022 | 0 | 293 | 10.0 | 14.0 | 0.00 | 0.00 | 0.00 | ||
| 20260508090522 | 0 | 293 | 11.0 | 15.0 | 0.00 | 0.00 | 0.00 | ||
| 20260508090021 | 0 | 293 | 10.0 | 13.0 | 0.00 | 0.00 | 0.00 | ||
| 20260508085521 | 0 | 293 | 9.0 | 13.0 | 0.00 | 0.00 | 0.00 | ||
| 20260508085022 | 0 | 293 | 9.0 | 13.0 | 0.00 | 0.00 | 0.00 | ||
| 20260508084522 | 0 | 293 | 9.0 | 12.0 | 0.00 | 0.00 | 0.00 | ||
| 20260508084021 | 0 | 293 | 8.0 | 13.0 | 0.00 | 0.00 | 0.00 | ||
| 20260508083524 | 0 | 293 | 8.0 | 13.0 | 0.00 | 0.00 | 0.00 | ||
| 20260508083021 | 0 | 293 | 8.0 | 11.0 | 0.00 | 0.00 | 0.00 | ||
| 20260508082541 | 0 | 293 | 8.0 | 11.0 | 0.00 | 0.00 | 0.00 | ||
| 20260508082022 | 0 | 315 | 6.0 | 11.0 | 0.00 | 0.00 | 0.00 | ||
| 20260508081522 | 0 | 315 | 7.0 | 12.0 | 0.00 | 0.00 | 0.00 | ||
| 20260508081021 | 0 | 315 | 8.0 | 11.0 | 0.00 | 0.00 | 0.00 | ||
| 20260508080523 | 0 | 315 | 7.0 | 10.0 | 0.00 | 0.00 | 0.00 | ||
| 20260508080024 | 0 | 315 | 6.0 | 9.0 | 0.00 | 0.00 | 0.00 | ||
| 20260508075521 | 0 | 338 | 8.0 | 11.0 | 0.00 | 0.00 | 0.00 | ||
| 20260508075021 | 0 | 338 | 8.0 | 12.0 | 0.00 | 0.00 | 0.00 | ||
| 20260508074524 | 0 | 315 | 9.0 | 13.0 | 0.00 | 0.00 | 0.00 | ||
| 20260508074027 | 0 | 315 | 8.0 | 12.0 | 0.00 | 0.00 | 0.00 | ||
| 20260508073543 | 0 | 338 | 9.0 | 11.0 | 0.00 | 0.00 | 0.00 | ||
| 20260508073023 | 0 | 338 | 8.0 | 10.0 | 0.00 | 0.00 | 0.00 | ||
| 20260508072521 | 0 | 315 | 8.0 | 11.0 | 0.00 | 0.00 | 0.00 | ||
| 20260508072041 | 0 | 315 | 6.0 | 9.0 | 0.00 | 0.00 | 0.00 | ||
| 20260508071521 | 0 | 315 | 6.0 | 10.0 | 0.00 | 0.00 | 0.00 | ||
| 20260508071102 | 0 | 315 | 5.0 | 9.0 | 0.00 | 0.00 | 0.00 | ||
| 20260508070522 | 0 | 315 | 6.0 | 9.0 | 0.00 | 0.00 | 0.00 | ||
| 20260508070021 | 0 | 315 | 5.0 | 9.0 | 0.00 | 0.00 | 0.00 | ||
| 20260508065521 | 0 | 315 | 6.0 | 11.0 | 0.00 | 0.00 | 0.00 | ||
| 20260508063021 | 0 | 338 | 12.0 | 16.0 | 0.00 | 0.00 | 0.00 | ||
| 20260508062521 | 0 | 338 | 11.0 | 14.0 | 0.00 | 0.00 | 0.00 | ||
| 20260508062041 | 0 | 315 | 10.0 | 14.0 | 0.00 | 0.00 | 0.00 | ||
| 20260508055521 | 0 | 338 | 13.0 | 17.0 | 0.00 | 0.00 | 0.00 | ||
| 20260508055023 | 0 | 0.0 | 0.0 | 0.00 | 0.00 | 0.00 | |||
| 20260508054541 | 0 | 0.0 | 0.0 | 0.00 | 0.00 | 0.00 | |||
| 20260508054123 | 0 | 0.0 | 0.0 | 0.00 | 0.00 | 0.00 | |||
| 20260508053619 | 0 | 0.0 | 0.0 | 0.00 | 0.00 | 0.00 | |||
| 20260508053020 | 0 | 0.0 | 0.0 | 0.00 | 0.00 | 0.00 | |||
| 20260508052538 | 0 | 0.0 | 0.0 | 0.00 | 0.00 | 0.00 | |||
| 20260508052041 | 0 | 0.0 | 0.0 | 0.00 | 0.00 | 0.00 | |||
| 20260508051521 | 0 | 0.0 | 0.0 | 0.00 | 0.00 | 0.00 | |||
| 20260508051042 | 0 | 0.0 | 0.0 | 0.00 | 0.00 | 0.00 | |||
| 20260508050521 | 0 | 0.0 | 0.0 | 0.00 | 0.00 | 0.00 | |||
| 20260508050021 | 0 | 0.0 | 0.0 | 0.00 | 0.00 | 0.00 | |||
| 20260508045521 | 0 | 0.0 | 0.0 | 0.00 | 0.00 | 0.00 | |||
| 20260508045012 | 0 | 0.0 | 0.0 | 0.00 | 0.00 | 0.00 | |||
| 20260508044535 | 0 | 0.0 | 0.0 | 0.00 | 0.00 | 0.00 | |||
| 20260508044020 | 0 | 0.0 | 0.0 | 0.00 | 0.00 | 0.00 | |||
| 20260508043521 | 0 | 0.0 | 0.0 | 0.00 | 0.00 | 0.00 | |||
| 20260508043020 | 0 | 0.0 | 0.0 | 0.00 | 0.00 | 0.00 | |||
| 20260508042541 | 0 | 0.0 | 0.0 | 0.00 | 0.00 | 0.00 | |||
| 20260508042021 | 0 | 0.0 | 0.0 | 0.00 | 0.00 | 0.00 | |||
| 20260508041521 | 0 | 321 | 15.0 | 0.0 | 0.00 | 0.00 | 0.00 | ||
| 20260508041020 | 0 | 321 | 15.0 | 0.0 | 0.00 | 0.00 | 0.00 | ||
| 20260508040531 | 0 | 315 | 15.0 | 15.0 | 0.00 | 0.00 | 0.00 | ||
| 20260508040024 | 0 | 315 | 15.0 | 22.0 | 0.00 | 0.00 | 0.00 | ||
| 20260508035525 | 0 | 315 | 15.0 | 22.0 | 0.00 | 0.00 | 0.00 | ||
| 20260508035021 | 0 | 315 | 15.0 | 20.0 | 0.00 | 0.00 | 0.00 | ||
| 20260508034525 | 0 | 315 | 13.0 | 21.0 | 0.00 | 0.00 | 0.00 | ||
| 20260508034022 | 0 | 315 | 12.0 | 20.0 | 0.00 | 0.00 | 0.00 | ||
| 20260508033522 | 0 | 293 | 12.0 | 19.0 | 0.00 | 0.00 | 0.00 | ||
| 20260508033021 | 0 | 293 | 12.0 | 20.0 | 0.00 | 0.00 | 0.00 | ||
| 20260508032021 | 0 | 293 | 12.0 | 18.0 | 0.00 | 0.00 | 0.00 | ||
| 20260508031521 | 0 | 293 | 14.0 | 21.0 | 0.00 | 0.00 | 0.00 | ||
| 20260508031022 | 0 | 293 | 13.0 | 18.0 | 0.00 | 0.00 | 0.00 | ||
| 20260508030543 | 0 | 293 | 13.0 | 19.0 | 0.00 | 0.00 | 0.00 | ||
| 20260508030022 | 0 | 293 | 13.0 | 17.0 | 0.00 | 0.00 | 0.00 | ||
| 20260508025521 | 0 | 293 | 12.0 | 16.0 | 0.00 | 0.00 | 0.00 | ||
| 20260508025022 | 0 | 293 | 11.0 | 17.0 | 0.00 | 0.00 | 0.00 | ||
| 20260508024021 | 0 | 293 | 10.0 | 17.0 | 0.00 | 0.00 | 0.00 | ||
| 20260508023548 | 0 | 293 | 10.0 | 16.0 | 0.00 | 0.00 | 0.00 | ||
| 20260508023021 | 0 | 293 | 10.0 | 15.0 | 0.00 | 0.00 | 0.00 | ||
| 20260508022521 | 0 | 293 | 10.0 | 15.0 | 0.00 | 0.00 | 0.00 | ||
| 20260508022022 | 0 | 293 | 10.0 | 15.0 | 0.00 | 0.00 | 0.00 | ||
| 20260508021543 | 0 | 293 | 10.0 | 12.0 | 0.00 | 0.00 | 0.00 | ||
| 20260508021021 | 0 | 293 | 10.0 | 13.0 | 0.00 | 0.00 | 0.00 | ||
| 20260508020528 | 0 | 293 | 10.0 | 13.0 | 0.00 | 0.00 | 0.00 | ||
| 20260508020023 | 0 | 293 | 10.0 | 13.0 | 0.00 | 0.00 | 0.00 | ||
| 20260508015541 | 0 | 293 | 10.0 | 14.0 | 0.00 | 0.00 | 0.00 | ||
| 20260508015022 | 0 | 293 | 8.0 | 12.0 | 0.00 | 0.00 | 0.00 | ||
| 20260508014521 | 0 | 315 | 7.0 | 11.0 | 0.00 | 0.00 | 0.00 | ||
| 20260508014041 | 0 | 293 | 8.0 | 13.0 | 0.00 | 0.00 | 0.00 | ||
| 20260508013522 | 0 | 315 | 8.0 | 13.0 | 0.00 | 0.00 | 0.00 | ||
| 20260508013021 | 0 | 315 | 8.0 | 14.0 | 0.00 | 0.00 | 0.00 | ||
| 20260508012559 | 0 | 293 | 8.0 | 12.0 | 0.00 | 0.00 | 0.00 | ||
| 20260508012024 | 0 | 293 | 8.0 | 12.0 | 0.00 | 0.00 | 0.00 | ||
| 20260508011522 | 0 | 315 | 7.0 | 11.0 | 0.00 | 0.00 | 0.00 | ||
| 20260508011021 | 0 | 315 | 7.0 | 12.0 | 0.00 | 0.00 | 0.00 | ||
| 20260508010521 | 0 | 315 | 7.0 | 12.0 | 0.00 | 0.00 | 0.00 | ||
| 20260508010043 | 0 | 315 | 7.0 | 12.0 | 0.00 | 0.00 | 0.00 | ||
| 20260508003522 | 0 | 315 | 7.0 | 11.0 | 0.00 | 0.00 | 0.00 | ||
| 20260508003021 | 0 | 315 | 7.0 | 10.0 | 0.00 | 0.00 | 0.00 | ||
| 20260508002523 | 0 | 315 | 7.0 | 11.0 | 0.00 | 0.00 | 0.00 | ||
| 20260508002021 | 0 | 315 | 6.0 | 11.0 | 0.00 | 0.00 | 0.00 | ||
| 20260508001541 | 0 | 293 | 6.0 | 10.0 | 0.00 | 0.00 | 0.00 | ||
| 20260508001041 | 0 | 293 | 6.0 | 10.0 | 0.00 | 0.00 | 0.00 | ||
| 20260508000544 | 0 | 315 | 5.0 | 10.0 | 0.00 | 0.00 | 0.00 | ||
| 20260508000205 | 0 | 315 | 5.0 | 10.0 | 0.00 | 0.00 | 0.00 | ||
| 20260507234524 | 0 | 293 | 2.0 | 6.0 | 0.00 | 0.00 | 0.00 | ||
| 20260507234022 | 0 | 180 | 2.0 | 5.0 | 0.00 | 0.00 | 0.00 | ||
| 20260507233541 | 52 | 203 | 2.0 | 4.0 | 0.00 | 0.00 | 0.00 | 83 | |
| 20260507233021 | 52 | 203 | 3.0 | 5.0 | 0.00 | 0.00 | 0.00 | 83 | |
| 20260507232521 | 52 | 203 | 2.0 | 5.0 | 0.00 | 0.00 | 0.00 | 83 | |
| 20260507232021 | 52 | 203 | 4.0 | 6.0 | 0.00 | 0.00 | 0.00 | 83 |